Latest Coastal Weather Observations for Cape Sorell

IDT60701

Issued at 2:21 am EST Sunday 6 September 2015 (issued every 10 minutes, with the page automatically refreshed every 10 minutes)

About coastal observations | Map of coastal stations | Coastal observations for TAS | Marine services | Other Formats
Station Details ID: 097000 Name: CAPE SORELL Lat: -42.20 Lon: 145.17 Height: 19.3 m
Data from the previous 72 hours. | See also: Recent months at Cape Sorell
Date/Time
EST
Temp

°C
Wind Pressure Rain
since 9am
mm
Weather Cloud Vis
km
Sea
Height
m
Swell
Dir
 
Speed
knots
Gust
knots
hPa Trend Height
m
Period
s
Dir
06/02:00am 7.8 - - - 1021.0 - - - - - - - - -
06/01:30am 5.8 - - - 1021.9 - - - - - - - - -
06/01:00am 5.5 - - - 1022.1 - - - - - - - - -
06/12:30am 5.3 - - - 1021.9 - - - - - - - - -
06/12:00am 6.7 - - - 1022.5 - - - - - - - - -
 
Date/Time
EST
Temp

°C
Wind Pressure Rain
since 9am
mm
Weather Cloud Vis
km
Sea
Height
m
Swell
Dir
 
Speed
knots
Gust
knots
hPa Trend Height
m
Period
s
Dir
05/11:30pm 7.2 - - - 1022.7 - - - - - - - - -
05/11:00pm 6.8 - - - 1022.9 - - - - - - - - -
05/10:30pm 7.0 - - - 1022.9 - - - - - - - - -
05/10:00pm 8.2 - - - 1023.0 - - - - - - - - -
05/09:30pm 7.2 - - - 1023.1 - - - - - - - - -
05/09:00pm 7.3 - - - 1023.0 - 0.0 - - - - - - -
05/08:30pm 7.4 - - - 1022.9 - - - - - - - - -
05/08:00pm 7.6 - - - 1022.8 - - - - - - - - -
05/07:30pm 7.3 - - - 1022.6 - - - - - - - - -
05/07:00pm 8.0 - - - 1022.4 - - - - - - - - -
05/06:30pm 9.3 - - - 1022.2 - - - - - - - - -
05/06:00pm 9.3 - - - 1021.9 - - - - - - - - -
05/05:30pm 10.1 - - - 1021.7 - - - - - - - - -
05/05:00pm 10.8 - - - 1021.7 - - - - - - - - -
05/04:30pm 11.3 - - - 1021.5 - - - - - - - - -
05/04:00pm 11.6 - - - 1021.6 - - - - - - - - -
05/03:30pm 11.8 - - - 1021.6 - - - - - - - - -
05/03:00pm 12.0 - - - 1021.6 - 0.0 - - - - - - -
05/02:30pm 12.2 - - - 1021.6 - - - - - - - - -
05/02:00pm 12.3 - - - 1021.6 - - - - - - - - -
05/01:30pm 12.2 - - - 1021.8 - - - - - - - - -
05/01:00pm 12.8 - - - 1022.0 - - - - - - - - -
05/12:30pm 11.9 - - - 1022.3 - - - - - - - - -
05/12:00pm 12.3 - - - 1022.4 - - - - - - - - -
05/11:30am 11.9 - - - 1022.5 - - - - - - - - -
05/11:00am 11.4 - - - 1022.6 - - - - - - - - -
05/10:30am 11.4 - - - 1022.4 - - - - - - - - -
05/10:00am 11.2 - - - 1022.4 - - - - - - - - -
05/09:30am 11.1 - - - 1022.4 - - - - - - - - -
05/09:00am 10.3 - - - 1022.5 - 3.0 - - - - - - -
05/08:30am 9.9 - - - 1022.4 - - - - - - - - -
05/08:00am 9.8 - - - 1022.2 - - - - - - - - -
05/07:30am 9.5 - - - 1021.8 - - - - - - - - -
05/07:00am 9.1 - - - 1021.5 - - - - - - - - -
05/06:30am 8.2 - - - 1021.1 - - - - - - - - -
05/06:00am 8.6 - - - 1020.8 - - - - - - - - -
05/05:30am 9.1 - - - 1020.5 - - - - - - - - -
05/05:00am 9.1 - - - 1019.9 - - - - - - - - -
05/04:30am 8.8 - - - 1019.6 - - - - - - - - -
05/04:00am 9.6 - - - 1019.0 - - - - - - - - -
05/03:30am 9.6 - - - 1019.2 - - - - - - - - -
05/03:00am 9.7 - - - 1019.1 - 0.8 Recent precip. - - - - - -
05/02:30am 9.5 - - - 1019.6 - - - - - - - - -
05/02:00am 9.4 - - - 1019.8 - - - - - - - - -
05/01:30am 9.5 - - - 1019.8 - - - - - - - - -
05/01:00am 9.5 - - - 1019.9 - - - - - - - - -
05/12:30am 9.7 - - - 1019.9 - - - - - - - - -
05/12:00am 9.6 - - - 1019.8 - - - - - - - - -
 
Date/Time
EST
Temp

°C
Wind Pressure Rain
since 9am
mm
Weather Cloud Vis
km
Sea
Height
m
Swell
Dir
 
Speed
knots
Gust
knots
hPa Trend Height
m
Period
s
Dir
04/11:30pm 9.7 - - - 1019.9 - - - - - - - - -
04/11:00pm 9.8 - - - 1019.9 - - - - - - - - -
04/10:30pm 9.6 - - - 1020.0 - - - - - - - - -
04/10:00pm 9.3 - - - 1020.2 - - - - - - - - -
04/09:30pm 9.9 - - - 1020.1 - - - - - - - - -
04/09:00pm 9.7 - - - 1020.1 - 1.0 - - - - - - -
04/08:30pm 9.8 - - - 1020.0 - - - - - - - - -
04/08:00pm 9.6 - - - 1019.8 - - - - - - - - -
04/07:30pm 9.5 - - - 1019.9 - - - - - - - - -
04/07:00pm 9.7 - - - 1019.9 - - - - - - - - -
04/06:30pm 8.9 - - - 1019.7 - - - - - - - - -
04/06:00pm 9.7 - - - 1019.7 - - - - - - - - -
04/05:30pm 9.5 - - - 1019.6 - - - - - - - - -
04/05:00pm 9.6 - - - 1019.3 - - - - - - - - -
04/04:30pm 10.0 - - - 1019.5 - - - - - - - - -
04/04:00pm 10.2 - - - 1019.5 - - - - - - - - -
04/03:30pm 11.2 - - - 1019.6 - - - - - - - - -
04/03:00pm 10.6 - - - 1019.6 - 1.0 Recent precip. - - - - - -
04/02:30pm 10.6 - - - 1019.3 - - - - - - - - -
04/02:00pm 10.0 - - - 1019.3 - - - - - - - - -
04/01:30pm 10.8 - - - 1019.6 - - - - - - - - -
04/01:00pm 11.9 - - - 1019.9 - - - - - - - - -
04/12:30pm 11.9 - - - 1020.5 - - - - - - - - -
04/12:00pm 10.6 - - - 1021.0 - - - - - - - - -
04/11:30am 11.2 - - - 1021.2 - - - - - - - - -
04/11:00am 10.6 - - - 1021.3 - - - - - - - - -
04/10:30am 10.9 - - - 1021.2 - - - - - - - - -
04/10:00am 9.9 - - - 1021.3 - - - - - - - - -
04/09:30am 9.6 - - - 1021.3 - - - - - - - - -
04/09:00am 9.3 - - - 1021.5 - 0.0 - - - - - - -
04/08:30am 9.2 - - - 1021.7 - - - - - - - - -
04/08:00am 8.2 - - - 1021.8 - - - - - - - - -
04/07:30am 8.2 - - - 1021.2 - - - - - - - - -
04/07:00am 8.0 - - - 1021.3 - - - - - - - - -
04/06:30am 7.8 - - - 1021.4 - - - - - - - - -
04/06:00am 7.8 - - - 1021.3 - - - - - - - - -
04/05:30am 8.1 - - - 1021.2 - - - - - - - - -
04/05:00am 7.5 - - - 1021.0 - - - - - - - - -
04/04:30am 7.1 - - - 1021.3 - - - - - - - - -
04/04:00am 6.9 - - - 1021.4 - - - - - - - - -
04/03:30am 6.6 - - - 1021.4 - - - - - - - - -
04/03:00am 6.1 - - - 1021.6 - 0.0 - - - - - - -
04/02:30am 6.3 - - - 1021.7 - - - - - - - - -
04/02:00am 4.8 - - - 1021.9 - - - - - - - - -
04/01:30am 4.2 - - - 1022.1 - - - - - - - - -
04/01:00am 6.6 - - - 1022.3 - - - - - - - - -
04/12:30am 7.6 - - - 1022.3 - - - - - - - - -
04/12:00am 7.1 - - - 1022.3 - - - - - - - - -
 
Date/Time
EST
Temp

°C
Wind Pressure Rain
since 9am
mm
Weather Cloud Vis
km
Sea
Height
m
Swell
Dir
 
Speed
knots
Gust
knots
hPa Trend Height
m
Period
s
Dir
03/11:30pm 7.2 - - - 1022.4 - - - - - - - - -
03/11:00pm 7.6 - - - 1022.5 - - - - - - - - -
03/10:30pm 7.3 - - - 1022.5 - - - - - - - - -
03/10:00pm 7.1 - - - 1022.4 - - - - - - - - -
03/09:30pm 6.7 - - - 1022.2 - - - - - - - - -
03/09:00pm 6.5 - - - 1022.1 - 0.0 - - - - - - -
03/08:30pm 6.4 - - - 1021.9 - - - - - - - - -
03/08:00pm 6.2 - - - 1021.5 - - - - - - - - -
03/07:30pm 7.0 - - - 1021.3 - - - - - - - - -
03/07:00pm 8.3 - - - 1021.1 - - - - - - - - -
03/06:30pm 8.4 - - - 1020.9 - - - - - - - - -
03/06:00pm 8.4 - - - 1020.5 - - - - - - - - -
03/05:30pm 8.9 - - - 1019.8 - - - - - - - - -
03/05:00pm 9.1 - - - 1019.4 - - - - - - - - -
03/04:30pm 9.5 - - - 1018.8 - - - - - - - - -
03/04:00pm 9.9 - - - 1018.3 - - - - - - - - -
03/03:30pm 10.2 - - - 1017.9 - - - - - - - - -
03/03:00pm 10.7 - - - 1017.7 - 0.0 - - - - - - -
03/02:30pm 10.6 - - - 1017.4 - - - - - - - - -
03/02:00pm 10.8 - - - 1017.1 - - - - - - - - -
03/01:30pm 10.6 - - - 1017.0 - - - - - - - - -
03/01:00pm 10.6 - - - 1017.0 - - - - - - - - -
03/12:30pm 10.7 - - - 1017.0 - - - - - - - - -
03/12:00pm 10.4 - - - 1017.0 - - - - - - - - -
03/11:30am 10.5 - - - 1016.9 - - - - - - - - -
03/11:00am 10.1 - - - 1016.7 - - - - - - - - -
03/10:30am 9.2 - - - 1016.4 - - - - - - - - -
03/10:00am 8.7 - - - 1015.9 - - - - - - - - -
03/09:30am 9.5 - - - 1015.6 - - - - - - - - -
03/09:00am 9.2 - - - 1015.2 - 2.0 - - - - - - -
03/08:30am 8.6 - - - 1014.5 - - - - - - - - -
03/08:00am 8.3 - - - 1013.9 - - - - - - - - -
03/07:30am 8.6 - - - 1013.2 - - - - - - - - -
03/07:00am 7.7 - - - 1013.0 - - - - - - - - -
03/06:30am 7.8 - - - 1012.5 - - - - - - - - -
03/06:00am 7.7 - - - 1012.1 - - Recent precip. - - - - - -
03/05:30am 7.8 - - - 1011.6 - - - - - - - - -
03/05:00am 7.8 - - - 1011.5 - - - - - - - - -
03/04:30am 7.9 - - - 1011.1 - - - - - - - - -
03/04:00am 8.4 - - - 1011.0 - - - - - - - - -
03/03:30am 8.6 - - - 1010.2 - - - - - - - - -
03/03:00am 8.6 - - - 1010.2 - 0.4 Recent precip. - - - - - -
03/02:30am 9.4 - - - 1010.2 - - - - - - - - -

Other Formats:

Comma delimited format used in spreadsheet applications
http://www.bom.gov.au/fwo/IDT60701/IDT60701.94974.axf

JavaScript Object Notation format (JSON) in row-major order
http://www.bom.gov.au/fwo/IDT60701/IDT60701.94974.json